This demonstration page uses our WeatherBlox Daily Observations layout. Learn more.

Left ArrowRight Arrow

Hourly Observations for September 9, 2016

Temp ( °F °C ) Dew Point ( °F °C ) Humidity (%) Winds ( mph kmh ) Pressure ( in mb ) Visibility ( mi km ) Precip ( " mm )
12:51 am 00:51 Clear 73 22.8 63 17.2 71 71 NW 10 17 29.87 1012 10 16.0934 0 0
1:51 am 01:51 Clear 73 22.8 63 17.2 71 71 NW 10 17 29.86 1011 10 16.0934 0 0
2:51 am 02:51 Clear 72 22.2 63 17.2 73 73 WNW 8 13 29.86 1011 10 16.0934 0 0
3:51 am 03:51 Clear 70 21.1 63 17.2 79 79 NNW 5 7 29.86 1011 10 16.0934 0 0
4:51 am 04:51 Clear 69 20.6 63 17.2 81 81 NW 6 9 29.87 1011 10 16.0934 0 0
5:51 am 05:51 Clear 68 20 63 17.2 84 84 Calm 29.89 1012 10 16.0934 0 0
6:51 am 06:51 Sunny 69 20.6 64 17.8 84 84 ESE 3 6 29.91 1013 10 16.0934 0 0
7:51 am 07:51 Sunny 75 23.9 64 17.8 69 69 W 5 7 29.91 1013 10 16.0934 0 0
8:51 am 08:51 Sunny 80 26.7 64 17.8 58 58 NW 13 20 29.91 1013 10 16.0934 0 0
9:51 am 09:51 Sunny 82 27.8 63 17.2 53 53 WNW 15 24 29.9 1013 10 16.0934 0 0
10:51 am 10:51 Sunny 85 29.4 61 16.1 45 45 NW 15 24 29.88 1012 10 16.0934 0 0
11:51 am 11:51 Sunny 88 31.1 61 16.1 40 40 NW 13 20 29.86 1011 10 16.0934 0 0
12:51 pm 12:51 Sunny 90 32.2 57 13.9 33 33 NW 13 20 29.83 1010 10 16.0934 0 0
1:51 pm 13:51 Sunny 92 33.3 57 13.9 31 31 WNW 10 17 29.8 1009 10 16.0934 0 0
2:51 pm 14:51 Sunny 94 34.4 55 12.8 27 27 WNW 9 15 29.78 1009 10 16.0934 0 0
3:51 pm 15:51 Sunny 95 35 50 10 22 22 WNW 10 17 29.78 1008 10 16.0934 0 0
4:51 pm 16:51 Sunny 93 33.9 50 10 23 23 W 12 19 29.78 1008 10 16.0934 0 0
5:51 pm 17:51 Sunny 92 33.3 52 11.1 26 26 W 10 17 29.78 1008 10 16.0934 0 0
6:51 pm 18:51 Clear 86 30 56 13.3 36 36 WNW 9 15 29.79 1009 10 16.0934 0 0
7:51 pm 19:51 Clear 85 29.4 55 12.8 36 36 NNW 13 20 29.81 1010 10 16.0934 0 0
8:51 pm 20:51 Clear 81 27.2 57 13.9 44 44 NW 13 20 29.83 1010 10 16.0934 0 0
9:51 pm 21:51 Clear 80 26.7 56 13.3 44 44 WNW 10 17 29.84 1011 10 16.0934 0 0
10:51 pm 22:51 Clear 80 26.7 54 12.2 41 41 WNW 14 22 29.84 1011 10 16.0934 0 0
11:51 pm 23:51 Clear 76 24.4 56 13.3 50 50 NNW 8 13 29.85 1011 10 16.0934 0 0

Powered by AerisWeather